Regional Weather Roundup
Issued by NWS Boston, MA

Current Version | Previous Version | Text Only | Print | Product List | Glossary Off
Versions: 1 2 3 4 5 6 7 8 9 10 11 12 13 14 15 16 17 18 19 20 21 22 23 24 25 26 27

000
ASUS41 KBOX 122210
RWRBOX

REGIONAL WEATHER ROUNDUP
NATIONAL WEATHER SERVICE TAUNTON MA
500 PM EST TUE DEC 12 2017

NOTE:  "FAIR" INDICATES FEW OR NO CLOUDS BELOW 12,000 FEET WITH NO
SIGNIFICANT WEATHER AND/OR OBSTRUCTIONS TO VISIBILITY.

MAZALL-122300-
EASTERN MASSACHUSETTS

CITY           SKY/WX    TMP DP  RH WIND       PRES   REMARKS
BOSTON         CLOUDY    45  43  93 SE15      29.36F
BEVERLY        CLOUDY    46  44  93 S8G20     29.34F
LAWRENCE       CLOUDY    36  33  89 NW5       29.38F FOG
BEDFORD        CLOUDY    36  35  96 N3        29.34F FOG
BLUE HILL        N/A     43  41  93 S8        29.33F
NORWOOD        CLOUDY    43  41  93 E3        29.34F
MARSHFIELD     CLOUDY    45  45 100 CALM      29.36F FOG
PLYMOUTH       CLOUDY    47  45  93 CALM      29.36F
TAUNTON        CLOUDY    44  43  96 SE3       29.34F
NEW BEDFORD    CLOUDY    44  32  62 CALM      29.33F FOG
$$

MAZALL-122300-
CAPE COD AND THE ISLANDS

CITY           SKY/WX    TMP DP  RH WIND       PRES   REMARKS
FALMOUTH       CLOUDY    48  46  93 W14       29.37S
HYANNIS        CLOUDY    50  49  96 SE8       29.34F
CHATHAM        LGT RAIN  52  52 100 S10G18    29.37F
PROVINCETOWN   CLOUDY    49  48  97 SE13G21   29.36F
NANTUCKET      CLOUDY    51  51 100 S20       29.36F
MARTHAS VNYRD  MIX PCPN   2   2 100 SW8       29.35F WCI -12
$$

MAZALL-122300-
CENTRAL AND WESTERN MASSACHUSETTS

CITY           SKY/WX    TMP DP  RH WIND       PRES   REMARKS
WORCESTER      FOG       34  32  92 W10G18    29.32F VSB<1/4 WCI  26
FITCHBURG      CLOUDY    35  33  92 N5        29.36F WCI  31
ORANGE         FRZ RAIN  32  32 100 CALM      29.36F
SPRINGFIELD    LGT RAIN  34  32  94 CALM      29.37F FOG
WESTFIELD      LGT RAIN  33  33 100 CALM      29.37F FOG
NORTH ADAMS    LGT SNOW  32  31  96 CALM      29.38F FOG
PITTSFIELD     LGT SNOW  33  31  92 CALM      29.35F VSB 1
$$

RIZALL-122300-
RHODE ISLAND

CITY           SKY/WX    TMP DP  RH WIND       PRES   REMARKS
PROVIDENCE     CLOUDY    47  46  97 CALM      29.34F
NEWPORT        CLOUDY    50  49  96 S5        29.33F
BLOCK ISLAND   MOCLDY    52  49  89 SW10      29.34F
SMITHFIELD     LGT RAIN  41  41 100 CALM      29.33F VSB 1/4
WESTERLY       CLOUDY    52  48  86 W8        29.34F
$$

CTZALL-122300-
CONNECTICUT

CITY           SKY/WX    TMP DP  RH WIND       PRES   REMARKS
BRADLEY INTL   LGT RAIN  35  34  96 NE3       29.38F
HARTFORD       CLOUDY    37  36  96 CALM      29.39S FOG
BRIDGEPORT     CLOUDY    42  36  79 W10       29.39F
DANBURY        CLOUDY    38  36  92 W5        29.40F
GROTON         CLOUDY    49  43  80 NW10      29.34F
NEW HAVEN      CLOUDY    42  36  79 NW10G17   29.39S
CHESTER        CLOUDY    41  39  93 NW5       29.36F
MERIDEN        CLOUDY    38  36  92 NW5       29.39S
WILLIMANTIC    LGT RAIN  39  36  89 CALM      29.38R
OXFORD         CLOUDY    36  36 100 W5        29.38F FOG     WCI  32
$$

MEZ002-015-021-024-NHZ003-005-008-011-012-014-VTZ005-008-122300-
NORTHERN NEW ENGLAND

CITY           SKY/WX    TMP DP  RH WIND       PRES   REMARKS
PORTLAND ME    FRZ RAIN  28  27  96 N9        29.44F FOG     WCI  19
BANGOR ME      LGT SNOW  22  19  89 N9        29.60F VSB 1   WCI  12
CONCORD NH     FRZ RAIN  28  25  88 NW7       29.40F FOG     WCI  21
MANCHESTER NH  LGT RAIN  32  31  96 N7        29.38F FOG     WCI  26
NASHUA NH      CLOUDY    32  32 100 N5        29.38F FOG     WCI  27
PORTSMOUTH NH  LGT RAIN  32  31  95 CALM      29.36F FOG
JAFFREY NH     FRZ RAIN  28  27  96 N5        29.34F WCI  23
KEENE NH       LGT SNOW  32  30  93 N5        29.38S VSB 3/4 WCI  27
BURLINGTON VT  LGT SNOW  32  29  88 E6        29.39F FOG     WCI  26
MT. WASHINGTON HVY SNOW  19  19 100 SE46        N/A  VSB 0   WCI  -3
$$

NYZ052-076-122300-
EASTERN NEW YORK

CITY           SKY/WX    TMP DP  RH WIND       PRES   REMARKS
ALBANY         LGT SNOW  35  30  82 W15       29.42R WCI  25
NEW YORK CITY  CLOUDY    45  33  63 W20       29.42R
$$

ANZALL-122300-
MARINE OBSERVATIONS

STATION/POSITION TIME  TEMP    WIND        PRES    VSBY  WAVE
                       AIR SEA DIR/SP/G                  HT/PER
                 (UTC) (F)     (DEG/KT/KT) (MB)    (MI)  (FT/S)
BOSTON BUOY      2050   48 48  120/ 17/ 25  994.9          4/ 5
BUZZARDS BAY     2100   52     210/ 16/ 18  994.8F
NANTUCKET SOUND  2050   47 45  160/ 10/ 17  995.4          2/ 5
MASS BAY-STELLWA 2104   47 48  130/ 19/ 27  995.2F         6/ 6
ISLE OF SHOALS   2100   46     120/ 25/ 29  994.9F
S OF BLOCK IS    2143      53                N/A           5/ 6
$$

......................KEY.........................
  SKY/WX - SKY CONDITION/PRESENT WEATHER
  TMP    - TEMPERATURE IN FAHRENHEIT
  DWPT   - DEWPOINT IN FAHRENHEIT
  RH     - RELATIVE HUMIDITY IN PERCENT
  WIND   - DIRECTION AND SPEED IN MPH
  PRES   - MEAN SEA LEVEL PRESSURE IN INCHES OF HG
  WCI    - WIND CHILL INDEX
  VSB    - VISIBILITY IN MILES
  HX     - HEAT INDEX
  TC     - TEMPERATURE IN CELSIUS
  VRB    - VARIABLE WIND DIRECTION
  N/A    - NOT AVAILABLE




USA.gov is the U.S. government's official web portal to all federal, state and local government web resources and services.